SWR17 KJFK-LSZH

Flight info

Callsign SWR17
Flight time 3h 56m
Altitude 39000
Route HAPIE DCT YAHOO DCT WHALE N251B NICSO/M084F400 NATX ELSOX/M085F410 DCT GAPLI/N0489F410 DCT LIZAD DCT JSY DCT TURDU DCT TADUP DCT TEPRI/N0492F350 UN491 POGZI DCT GELTA DCT MANAG DCT PEVIT DCT BLM
Aircraft A359/H-SDE2E3GHIJ3J4J5LM1ORWXY/LB1D1

Departure

Time 2026-05-06 00:02
Airport John F. Kennedy International Airport (KJFK)

Arrival

Time 2026-05-06 03:59
Airport Zürich Airport (LSZH)
Time Latitude Longitude Altitude Speed Heading
2026-05-05 23:30 40.64175 -73.79317 31 ft 0 kts 108°
2026-05-05 23:47 40.64178 -73.79330 30 ft 3 kts 108°
2026-05-05 23:47 40.64185 -73.79355 29 ft 3 kts 108°
2026-05-05 23:48 40.64191 -73.79377 28 ft 3 kts 135°
2026-05-05 23:48 40.64207 -73.79388 27 ft 3 kts 170°
2026-05-05 23:48 40.64219 -73.79391 30 ft 1 kts 169°
2026-05-05 23:48 40.64236 -73.79393 30 ft 3 kts 198°
2026-05-05 23:49 40.64252 -73.79382 28 ft 3 kts 222°
2026-05-05 23:49 40.64255 -73.79378 28 ft 2 kts 224°
2026-05-05 23:49 40.64245 -73.79392 29 ft 1 kts 227°
2026-05-05 23:52 40.64240 -73.79400 29 ft 3 kts 229°
2026-05-05 23:52 40.64221 -73.79440 30 ft 7 kts 242°
2026-05-05 23:52 40.64198 -73.79515 31 ft 9 kts 250°
2026-05-05 23:52 40.64167 -73.79592 31 ft 9 kts 219°
2026-05-05 23:53 40.64106 -73.79601 30 ft 11 kts 172°
2026-05-05 23:53 40.64026 -73.79560 29 ft 14 kts 146°
2026-05-05 23:53 40.63958 -73.79455 29 ft 17 kts 119°
2026-05-05 23:53 40.63893 -73.79312 26 ft 20 kts 121°
2026-05-05 23:54 40.63824 -73.79159 28 ft 19 kts 120°
2026-05-05 23:54 40.63756 -73.79007 29 ft 20 kts 121°
2026-05-05 23:54 40.63690 -73.78860 33 ft 18 kts 121°
2026-05-05 23:54 40.63626 -73.78719 33 ft 19 kts 121°
2026-05-05 23:55 40.63558 -73.78571 34 ft 19 kts 121°
2026-05-05 23:55 40.63488 -73.78418 32 ft 21 kts 121°
2026-05-05 23:55 40.63411 -73.78249 32 ft 21 kts 121°
2026-05-05 23:55 40.63366 -73.78151 17 ft 12 kts 121°
2026-05-05 23:56 40.63332 -73.78041 30 ft 14 kts 103°
2026-05-05 23:56 40.63335 -73.77917 31 ft 14 kts 74°
2026-05-05 23:56 40.63406 -73.77789 33 ft 21 kts 36°
2026-05-05 23:56 40.63532 -73.77689 27 ft 23 kts 32°
2026-05-05 23:57 40.63676 -73.77575 29 ft 25 kts 31°
2026-05-05 23:57 40.63834 -73.77451 29 ft 27 kts 31°
2026-05-05 23:57 40.63987 -73.77331 27 ft 22 kts 31°
2026-05-05 23:57 40.64093 -73.77248 30 ft 17 kts 31°
2026-05-05 23:58 40.64200 -73.77165 30 ft 19 kts 30°
2026-05-05 23:58 40.64318 -73.77072 29 ft 20 kts 31°
2026-05-05 23:58 40.64413 -73.77003 26 ft 17 kts 25°
2026-05-05 23:58 40.64530 -73.76965 27 ft 17 kts 24°
2026-05-05 23:59 40.64631 -73.76894 30 ft 17 kts 31°
2026-05-05 23:59 40.64734 -73.76810 28 ft 18 kts 31°
2026-05-05 23:59 40.64835 -73.76732 28 ft 14 kts 31°
2026-05-05 23:59 40.64919 -73.76664 28 ft 15 kts 29°
2026-05-06 00:00 40.65017 -73.76592 27 ft 17 kts 30°
2026-05-06 00:00 40.65090 -73.76517 28 ft 9 kts 70°
2026-05-06 00:00 40.65081 -73.76439 29 ft 9 kts 113°
2026-05-06 00:00 40.65052 -73.76368 29 ft 9 kts 122°
2026-05-06 00:01 40.65010 -73.76367 29 ft 6 kts 209°
2026-05-06 00:01 40.64984 -73.76386 29 ft 0 kts 209°
2026-05-06 00:02 40.64828 -73.76506 28 ft 57 kts 210°
2026-05-06 00:02 40.64310 -73.76913 28 ft 114 kts 210°
2026-05-06 00:02 40.63513 -73.77509 374 ft 131 kts 204°
2026-05-06 00:02 40.62697 -73.78104 894 ft 141 kts 209°
2026-05-06 00:03 40.61845 -73.78811 1389 ft 153 kts 212°
2026-05-06 00:03 40.60875 -73.79615 1655 ft 177 kts 212°
2026-05-06 00:03 40.59755 -73.80529 1851 ft 202 kts 213°
2026-05-06 00:03 40.58502 -73.81548 2281 ft 217 kts 214°
2026-05-06 00:04 40.57444 -73.82969 2910 ft 223 kts 240°
2026-05-06 00:04 40.57099 -73.84982 3527 ft 235 kts 269°
2026-05-06 00:04 40.57626 -73.87016 4282 ft 247 kts 297°
2026-05-06 00:04 40.58932 -73.88547 5060 ft 262 kts 325°
2026-05-06 00:05 40.62693 -73.88592 6570 ft 296 kts 18°
2026-05-06 00:05 40.64517 -73.87274 7330 ft 302 kts 26°
2026-05-06 00:05 40.66303 -73.85804 8124 ft 304 kts 27°
2026-05-06 00:06 40.68099 -73.84315 8941 ft 306 kts 27°
2026-05-06 00:06 40.69912 -73.82822 9758 ft 308 kts 27°
2026-05-06 00:06 40.71742 -73.81323 10393 ft 316 kts 27°
2026-05-06 00:06 40.73668 -73.79760 10715 ft 335 kts 27°
2026-05-06 00:07 40.75687 -73.78141 11001 ft 354 kts 27°
2026-05-06 00:07 40.76712 -73.77323 11145 ft 362 kts 27°
2026-05-06 00:07 40.77175 -73.76954 11212 ft 366 kts 27°
2026-05-06 00:07 40.77654 -73.76575 11274 ft 370 kts 27°
2026-05-06 00:08 40.78135 -73.76194 11343 ft 373 kts 27°
2026-05-06 00:08 40.78632 -73.75803 11392 ft 377 kts 27°
2026-05-06 00:08 40.78966 -73.75541 11437 ft 379 kts 27°
2026-05-06 00:08 40.79829 -73.74867 11588 ft 383 kts 27°
2026-05-06 00:09 40.80133 -73.74627 11661 ft 384 kts 27°
2026-05-06 00:09 40.80429 -73.74395 11739 ft 384 kts 27°
2026-05-06 00:09 40.80800 -73.74103 11857 ft 385 kts 27°
2026-05-06 00:09 40.82065 -73.73102 12355 ft 382 kts 27°
2026-05-06 00:10 40.82760 -73.72555 12646 ft 383 kts 27°
2026-05-06 00:10 40.82996 -73.72370 12723 ft 383 kts 26°
2026-05-06 00:10 40.83342 -73.72098 12830 ft 384 kts 26°
2026-05-06 00:10 40.83599 -73.71897 12911 ft 384 kts 26°
2026-05-06 00:11 40.83794 -73.71744 12979 ft 384 kts 26°
2026-05-06 00:11 40.84150 -73.71464 13116 ft 384 kts 27°
2026-05-06 00:11 40.84386 -73.71276 13204 ft 383 kts 26°
2026-05-06 00:11 40.84877 -73.70886 13376 ft 384 kts 26°
2026-05-06 00:12 40.85371 -73.70507 13530 ft 384 kts 25°
2026-05-06 00:12 40.85869 -73.70153 13656 ft 385 kts 22°
2026-05-06 00:12 40.86392 -73.69824 13735 ft 386 kts 19°
2026-05-06 00:12 40.87748 -73.69137 13847 ft 392 kts 17°
2026-05-06 00:13 40.90119 -73.67660 14357 ft 400 kts 25°
2026-05-06 00:13 40.90915 -73.67066 14540 ft 402 kts 26°
2026-05-06 00:13 40.91611 -73.66533 14684 ft 404 kts 26°
2026-05-06 00:13 40.92265 -73.66042 14833 ft 406 kts 27°
2026-05-06 00:14 40.92882 -73.65570 14978 ft 407 kts 28°
2026-05-06 00:14 40.94281 -73.64358 15296 ft 410 kts 31°
2026-05-06 00:14 40.96644 -73.62191 15779 ft 419 kts 37°
2026-05-06 00:14 40.98670 -73.59365 16258 ft 429 kts 54°
2026-05-06 00:15 40.99972 -73.55811 16794 ft 433 kts 75°
2026-05-06 00:15 41.00356 -73.51873 17354 ft 433 kts 95°
2026-05-06 00:15 40.99797 -73.48036 17893 ft 430 kts 114°
2026-05-06 00:15 40.98348 -73.44629 18456 ft 423 kts 133°
2026-05-06 00:16 40.96194 -73.42056 18958 ft 416 kts 152°
2026-05-06 00:16 40.93656 -73.40255 19442 ft 415 kts 160°
2026-05-06 00:16 40.90997 -73.38723 19946 ft 419 kts 161°
2026-05-06 00:16 40.88324 -73.37160 20475 ft 423 kts 159°
2026-05-06 00:17 40.85658 -73.35440 21009 ft 429 kts 157°
2026-05-06 00:17 40.83013 -73.33557 21524 ft 434 kts 155°
2026-05-06 00:17 40.80379 -73.31547 22060 ft 439 kts 153°
2026-05-06 00:17 40.77747 -73.29458 22567 ft 444 kts 152°
2026-05-06 00:18 40.75087 -73.27311 22933 ft 452 kts 153°
2026-05-06 00:18 40.72422 -73.25156 23365 ft 458 kts 153°
2026-05-06 00:18 40.69696 -73.22954 23812 ft 461 kts 152°
2026-05-06 00:18 40.66947 -73.20744 24293 ft 464 kts 152°
2026-05-06 00:19 40.64184 -73.18531 24749 ft 467 kts 153°
2026-05-06 00:19 40.62336 -73.17055 25030 ft 470 kts 153°
2026-05-06 00:19 40.58579 -73.14065 25622 ft 474 kts 153°
2026-05-06 00:19 40.55749 -73.11816 26067 ft 477 kts 152°
2026-05-06 00:20 40.52897 -73.09552 26493 ft 480 kts 152°
2026-05-06 00:20 40.50025 -73.07277 26926 ft 484 kts 152°
2026-05-06 00:20 40.47224 -73.04794 27345 ft 490 kts 145°
2026-05-06 00:20 40.44705 -73.01818 27764 ft 497 kts 135°
2026-05-06 00:21 40.42540 -72.98264 28183 ft 503 kts 125°
2026-05-06 00:21 40.40869 -72.94213 28606 ft 508 kts 113°
2026-05-06 00:21 40.39785 -72.89800 28996 ft 511 kts 102°
2026-05-06 00:21 40.39352 -72.85171 29365 ft 513 kts 89°
2026-05-06 00:22 40.39775 -72.80551 29754 ft 511 kts 73°
2026-05-06 00:22 40.41053 -72.76230 30127 ft 508 kts 59°
2026-05-06 00:22 40.42772 -72.72185 30437 ft 508 kts 57°
2026-05-06 00:22 40.44482 -72.68118 30753 ft 511 kts 59°
2026-05-06 00:23 40.46009 -72.63893 31072 ft 515 kts 64°
2026-05-06 00:23 40.47336 -72.59485 31271 ft 520 kts 67°
2026-05-06 00:23 40.48480 -72.54997 31879 ft 515 kts 69°
2026-05-06 00:23 40.49508 -72.50517 32410 ft 512 kts 70°
2026-05-06 00:24 40.50477 -72.46076 32767 ft 512 kts 71°
2026-05-06 00:24 40.51442 -72.41576 33116 ft 512 kts 71°
2026-05-06 00:24 40.52407 -72.37075 33485 ft 511 kts 70°
2026-05-06 00:24 40.53374 -72.32596 33864 ft 510 kts 70°
2026-05-06 00:25 40.54348 -72.28120 34185 ft 509 kts 70°
2026-05-06 00:25 40.55327 -72.23644 34478 ft 508 kts 70°
2026-05-06 00:25 40.56302 -72.19196 34804 ft 506 kts 70°
2026-05-06 00:25 40.57278 -72.14741 35059 ft 507 kts 70°
2026-05-06 00:26 40.58253 -72.10287 35298 ft 507 kts 71°
2026-05-06 00:26 40.59216 -72.05877 35470 ft 509 kts 71°
2026-05-06 00:26 40.60204 -72.01345 35714 ft 509 kts 71°
2026-05-06 00:26 40.61162 -71.96936 35949 ft 508 kts 71°
2026-05-06 00:27 40.62131 -71.92462 36191 ft 508 kts 71°
2026-05-06 00:27 40.63098 -71.87992 36434 ft 507 kts 71°
2026-05-06 00:27 40.64060 -71.83533 36678 ft 506 kts 71°
2026-05-06 00:27 40.65021 -71.79070 36880 ft 507 kts 72°
2026-05-06 00:28 40.65980 -71.74607 37061 ft 507 kts 72°
2026-05-06 00:28 40.66939 -71.70136 37264 ft 507 kts 72°
2026-05-06 00:28 40.67897 -71.65664 37456 ft 507 kts 72°
2026-05-06 00:28 40.68852 -71.61193 37646 ft 507 kts 72°
2026-05-06 00:29 40.69792 -71.56783 37817 ft 507 kts 72°
2026-05-06 00:29 40.70743 -71.52312 38013 ft 507 kts 72°
2026-05-06 00:29 40.71694 -71.47833 38180 ft 507 kts 72°
2026-05-06 00:29 40.72641 -71.43360 38330 ft 507 kts 72°
2026-05-06 00:30 40.73589 -71.38876 38500 ft 507 kts 73°
2026-05-06 00:30 40.74535 -71.34391 38632 ft 507 kts 73°
2026-05-06 00:30 40.75478 -71.29911 38765 ft 507 kts 73°
2026-05-06 00:30 40.76420 -71.25424 38882 ft 507 kts 73°
2026-05-06 00:31 40.77362 -71.20934 38957 ft 508 kts 73°
2026-05-06 00:31 40.79245 -71.11923 39000 ft 511 kts 73°
2026-05-06 00:32 40.81126 -71.02879 38995 ft 510 kts 73°
2026-05-06 00:32 40.82983 -70.93910 39026 ft 510 kts 73°
2026-05-06 00:33 40.84845 -70.84881 39030 ft 510 kts 73°
2026-05-06 00:33 40.86704 -70.75829 39016 ft 511 kts 73°
2026-05-06 00:34 40.88556 -70.66768 39025 ft 511 kts 73°
2026-05-06 00:34 40.90402 -70.57700 39039 ft 511 kts 73°
2026-05-06 00:35 40.92228 -70.48689 39030 ft 511 kts 74°
2026-05-06 00:35 40.94061 -70.39603 39027 ft 511 kts 74°
2026-05-06 00:36 40.95887 -70.30512 39031 ft 512 kts 74°
2026-05-06 00:36 40.97706 -70.21411 39020 ft 511 kts 74°
2026-05-06 00:37 40.99518 -70.12311 39015 ft 511 kts 75°
2026-05-06 00:37 41.01311 -70.03264 39015 ft 511 kts 75°
2026-05-06 00:38 41.03107 -69.94159 39013 ft 511 kts 75°
2026-05-06 00:38 41.04899 -69.85036 39016 ft 511 kts 75°
2026-05-06 00:39 41.06819 -69.75988 39019 ft 510 kts 68°
2026-05-06 00:39 41.09931 -69.67578 39022 ft 508 kts 60°
2026-05-06 00:40 41.13394 -69.59414 39036 ft 508 kts 59°
2026-05-06 00:40 41.16890 -69.51332 39038 ft 508 kts 59°
2026-05-06 00:41 41.20387 -69.43190 39042 ft 508 kts 59°
2026-05-06 00:41 41.23773 -69.35239 39051 ft 508 kts 59°
2026-05-06 00:42 41.27233 -69.27075 39051 ft 508 kts 59°
2026-05-06 00:42 41.30673 -69.18937 39060 ft 508 kts 59°
2026-05-06 00:43 41.34129 -69.10740 39065 ft 509 kts 59°
2026-05-06 00:43 41.37584 -69.02526 39065 ft 509 kts 59°
2026-05-06 00:44 41.41037 -68.94293 39062 ft 509 kts 59°
2026-05-06 00:44 41.44480 -68.86062 39082 ft 509 kts 60°
2026-05-06 00:45 41.47918 -68.77819 39066 ft 509 kts 59°
2026-05-06 00:45 41.51333 -68.69608 39078 ft 509 kts 60°
2026-05-06 00:46 41.54760 -68.61345 39070 ft 509 kts 60°
2026-05-06 00:46 41.58184 -68.53066 39080 ft 509 kts 60°
2026-05-06 00:47 41.61600 -68.44786 39074 ft 509 kts 60°
2026-05-06 00:47 41.65014 -68.36485 39070 ft 509 kts 60°
2026-05-06 00:48 41.68398 -68.28235 39093 ft 509 kts 60°
2026-05-06 00:48 41.71798 -68.19923 39078 ft 509 kts 60°
2026-05-06 00:49 41.75193 -68.11599 39082 ft 509 kts 60°
2026-05-06 00:49 41.78581 -68.03268 39076 ft 509 kts 60°
2026-05-06 00:50 41.81962 -67.94932 39081 ft 509 kts 60°
2026-05-06 00:50 41.85317 -67.86637 39084 ft 509 kts 60°
2026-05-06 00:51 41.88689 -67.78274 39082 ft 510 kts 60°
2026-05-06 00:51 41.92056 -67.69900 39084 ft 510 kts 60°
2026-05-06 00:52 41.95419 -67.61514 39085 ft 510 kts 60°
2026-05-06 00:52 41.98773 -67.53123 39086 ft 510 kts 60°
2026-05-06 00:53 42.02106 -67.44764 39089 ft 511 kts 60°
2026-05-06 00:53 42.05455 -67.36339 39089 ft 511 kts 60°
2026-05-06 00:54 42.08801 -67.27897 39095 ft 511 kts 60°
2026-05-06 00:54 42.12139 -67.19451 39093 ft 511 kts 61°
2026-05-06 00:55 42.15477 -67.10980 39092 ft 512 kts 61°
2026-05-06 00:55 42.18810 -67.02499 39094 ft 512 kts 61°
2026-05-06 00:56 42.22234 -66.94155 39096 ft 511 kts 57°
2026-05-06 00:56 42.26010 -66.86032 39097 ft 511 kts 56°
2026-05-06 00:57 42.29810 -66.77915 39096 ft 511 kts 57°
2026-05-06 00:57 42.33554 -66.69745 39099 ft 511 kts 57°
2026-05-06 00:58 42.37240 -66.61592 39098 ft 511 kts 57°
2026-05-06 00:58 42.40935 -66.53378 39092 ft 511 kts 57°
2026-05-06 00:59 42.44621 -66.45170 39103 ft 510 kts 57°
2026-05-06 00:59 42.48299 -66.36958 39111 ft 510 kts 57°
2026-05-06 01:00 42.51971 -66.28743 39110 ft 510 kts 58°
2026-05-06 01:00 42.55644 -66.20500 39103 ft 511 kts 58°
2026-05-06 01:01 42.59287 -66.12302 39110 ft 511 kts 58°
2026-05-06 01:01 42.62942 -66.04053 39109 ft 510 kts 58°
2026-05-06 01:02 42.66594 -65.95788 39106 ft 510 kts 58°
2026-05-06 01:02 42.70239 -65.87517 39113 ft 510 kts 58°
2026-05-06 01:03 42.73881 -65.79228 39114 ft 510 kts 58°
2026-05-06 01:03 42.77494 -65.70984 39112 ft 511 kts 58°
2026-05-06 01:04 42.81126 -65.62671 39118 ft 511 kts 58°
2026-05-06 01:04 42.84755 -65.54344 39118 ft 511 kts 58°
2026-05-06 01:05 42.88376 -65.46008 39120 ft 511 kts 58°
2026-05-06 01:05 42.91989 -65.37668 39120 ft 511 kts 58°
2026-05-06 01:06 42.95573 -65.29373 39119 ft 511 kts 58°
2026-05-06 01:06 42.99175 -65.21011 39120 ft 511 kts 58°
2026-05-06 01:07 43.02774 -65.12634 39116 ft 511 kts 58°
2026-05-06 01:07 43.06368 -65.04242 39120 ft 511 kts 58°
2026-05-06 01:08 43.09927 -64.95909 39118 ft 511 kts 58°
2026-05-06 01:08 43.13509 -64.87497 39116 ft 511 kts 58°
2026-05-06 01:09 43.17081 -64.79087 39123 ft 511 kts 58°
2026-05-06 01:09 43.20045 -64.72088 39120 ft 510 kts 58°
2026-05-06 01:10 43.24177 -64.62303 39116 ft 510 kts 58°
2026-05-06 01:10 43.27727 -64.53870 39120 ft 511 kts 59°
2026-05-06 01:11 43.30674 -64.46851 39115 ft 511 kts 59°
2026-05-06 01:11 43.34217 -64.38390 39116 ft 511 kts 59°
2026-05-06 01:12 43.37752 -64.29920 39123 ft 511 kts 59°
2026-05-06 01:12 43.41856 -64.20062 39127 ft 512 kts 59°
2026-05-06 01:13 43.44790 -64.12991 39126 ft 511 kts 59°
2026-05-06 01:13 43.48305 -64.04496 39136 ft 510 kts 59°
2026-05-06 01:14 43.53560 -63.91750 39135 ft 510 kts 59°
2026-05-06 01:14 43.57059 -63.83231 39136 ft 511 kts 59°
2026-05-06 01:15 43.60533 -63.74752 39140 ft 511 kts 59°
2026-05-06 01:15 43.64017 -63.66220 39140 ft 511 kts 59°
2026-05-06 01:16 43.67498 -63.57667 39137 ft 511 kts 59°
2026-05-06 01:16 43.70971 -63.49111 39143 ft 511 kts 60°
2026-05-06 01:17 43.74439 -63.40543 39144 ft 510 kts 60°
2026-05-06 01:17 43.77871 -63.32039 39144 ft 510 kts 60°
2026-05-06 01:18 43.81322 -63.23460 39137 ft 510 kts 60°
2026-05-06 01:18 43.84763 -63.14878 39138 ft 510 kts 60°
2026-05-06 01:19 43.88201 -63.06281 39138 ft 510 kts 60°
2026-05-06 01:19 43.91612 -62.97726 39136 ft 510 kts 60°
2026-05-06 01:20 43.95037 -62.89107 39143 ft 511 kts 60°
2026-05-06 01:20 43.98461 -62.80466 39141 ft 511 kts 60°
2026-05-06 01:21 44.01876 -62.71820 39142 ft 511 kts 60°
2026-05-06 01:21 44.05269 -62.63206 39146 ft 512 kts 61°
2026-05-06 01:22 44.08683 -62.54511 39147 ft 512 kts 61°
2026-05-06 01:22 44.12092 -62.45800 39140 ft 512 kts 61°
2026-05-06 01:23 44.15492 -62.37088 39149 ft 513 kts 61°
2026-05-06 01:23 44.18897 -62.28334 39146 ft 514 kts 61°
2026-05-06 01:24 44.22270 -62.19635 39144 ft 514 kts 61°
2026-05-06 01:24 44.25663 -62.10858 39145 ft 514 kts 61°
2026-05-06 01:25 44.29048 -62.02074 39155 ft 514 kts 61°
2026-05-06 01:25 44.32426 -61.93281 39147 ft 514 kts 61°
2026-05-06 01:26 44.35801 -61.84465 39150 ft 514 kts 62°
2026-05-06 01:26 44.39147 -61.75702 39160 ft 514 kts 62°
2026-05-06 01:27 44.42510 -61.66862 39151 ft 516 kts 62°
2026-05-06 01:27 44.45875 -61.57991 39151 ft 516 kts 62°
2026-05-06 01:28 44.49232 -61.49113 39154 ft 516 kts 62°
2026-05-06 01:28 44.52561 -61.40281 39161 ft 516 kts 62°
2026-05-06 01:29 44.55912 -61.31362 39156 ft 517 kts 62°
2026-05-06 01:29 44.59257 -61.22428 39159 ft 518 kts 62°
2026-05-06 01:30 44.62600 -61.13474 39159 ft 518 kts 62°
2026-05-06 01:30 44.65932 -61.04518 39160 ft 518 kts 62°
2026-05-06 01:31 44.69245 -60.95584 39162 ft 519 kts 62°
2026-05-06 01:31 44.72573 -60.86579 39159 ft 519 kts 62°
2026-05-06 01:32 44.75895 -60.77564 39159 ft 519 kts 62°
2026-05-06 01:32 44.79210 -60.68536 39157 ft 519 kts 62°
2026-05-06 01:33 44.82515 -60.59506 39162 ft 518 kts 62°
2026-05-06 01:33 44.85786 -60.50541 39162 ft 518 kts 62°
2026-05-06 01:34 44.89068 -60.41513 39162 ft 518 kts 62°
2026-05-06 01:34 44.92349 -60.32463 39165 ft 518 kts 62°
2026-05-06 01:35 44.95622 -60.23400 39165 ft 518 kts 62°
2026-05-06 01:35 44.98862 -60.14400 39165 ft 518 kts 62°
2026-05-06 01:36 45.02115 -60.05333 39168 ft 517 kts 62°
2026-05-06 01:36 45.05360 -59.96259 39167 ft 517 kts 62°
2026-05-06 01:37 45.08603 -59.87161 39161 ft 517 kts 62°
2026-05-06 01:37 45.11835 -59.78064 39162 ft 517 kts 63°
2026-05-06 01:38 45.15035 -59.69024 39171 ft 518 kts 62°
2026-05-06 01:38 45.18257 -59.59893 39165 ft 518 kts 63°
2026-05-06 01:39 45.21469 -59.50758 39162 ft 518 kts 63°
2026-05-06 01:39 45.24679 -59.41599 39170 ft 518 kts 63°
2026-05-06 01:40 45.27876 -59.32444 39168 ft 518 kts 63°
2026-05-06 01:40 45.31052 -59.23321 39167 ft 518 kts 63°
2026-05-06 01:41 45.34239 -59.14132 39170 ft 518 kts 63°
2026-05-06 01:41 45.37418 -59.04935 39184 ft 518 kts 63°
2026-05-06 01:42 45.40588 -58.95733 39169 ft 518 kts 63°
2026-05-06 01:42 45.43732 -58.86575 39171 ft 518 kts 63°
2026-05-06 01:43 45.46890 -58.77347 39179 ft 518 kts 63°
2026-05-06 01:43 45.50040 -58.68106 39181 ft 518 kts 63°
2026-05-06 01:44 45.53184 -58.58853 39175 ft 518 kts 63°
2026-05-06 01:44 45.56297 -58.49659 39179 ft 518 kts 63°
2026-05-06 01:45 45.59424 -58.40392 39178 ft 518 kts 63°
2026-05-06 01:45 45.62542 -58.31114 39181 ft 517 kts 63°
2026-05-06 01:46 45.65645 -58.21854 39181 ft 517 kts 63°
2026-05-06 01:46 45.68719 -58.12646 39178 ft 517 kts 63°
2026-05-06 01:47 45.71807 -58.03364 39178 ft 516 kts 63°
2026-05-06 01:47 45.74884 -57.94081 39181 ft 516 kts 63°
2026-05-06 01:48 45.77951 -57.84797 39187 ft 515 kts 63°
2026-05-06 01:48 45.81008 -57.75508 39187 ft 515 kts 63°
2026-05-06 01:49 45.84035 -57.66279 39181 ft 515 kts 63°
2026-05-06 01:49 45.87077 -57.56972 39190 ft 515 kts 63°
2026-05-06 01:50 45.90108 -57.47663 39189 ft 515 kts 63°
2026-05-06 01:50 45.93132 -57.38346 39186 ft 515 kts 63°
2026-05-06 01:51 45.96048 -57.29326 39186 ft 515 kts 63°
2026-05-06 01:51 45.99057 -57.19987 39191 ft 515 kts 63°
2026-05-06 01:52 46.02037 -57.10703 39187 ft 514 kts 63°
2026-05-06 01:52 46.05027 -57.01358 39189 ft 514 kts 63°
2026-05-06 01:53 46.08013 -56.91988 39192 ft 514 kts 63°
2026-05-06 01:53 46.10990 -56.82615 39195 ft 514 kts 63°
2026-05-06 01:54 46.13958 -56.73233 39192 ft 515 kts 63°
2026-05-06 01:54 46.16899 -56.63903 39197 ft 515 kts 63°
2026-05-06 01:55 46.19856 -56.54489 39217 ft 515 kts 63°
2026-05-06 01:55 46.22801 -56.45075 39206 ft 515 kts 63°
2026-05-06 01:56 46.25742 -56.35645 39197 ft 515 kts 63°
2026-05-06 01:56 46.28651 -56.26281 39208 ft 514 kts 63°
2026-05-06 01:57 46.31574 -56.16836 39193 ft 515 kts 63°
2026-05-06 01:57 46.34490 -56.07377 39202 ft 515 kts 63°
2026-05-06 01:58 46.37399 -55.97906 39204 ft 515 kts 63°
2026-05-06 01:58 46.41096 -55.85820 39200 ft 516 kts 63°
2026-05-06 01:59 46.52671 -55.47592 39202 ft 517 kts 63°
2026-05-06 01:59 46.64116 -55.09211 39209 ft 518 kts 63°
2026-05-06 02:00 46.75454 -54.70596 39213 ft 519 kts 63°
2026-05-06 02:00 46.86695 -54.31699 39207 ft 521 kts 63°
2026-05-06 02:01 46.97721 -53.92932 39194 ft 519 kts 63°
2026-05-06 02:01 47.08705 -53.53683 39194 ft 520 kts 63°
2026-05-06 02:02 47.19525 -53.14386 39184 ft 518 kts 63°
2026-05-06 02:02 47.30197 -52.74976 39173 ft 518 kts 64°
2026-05-06 02:03 47.40647 -52.35736 39168 ft 515 kts 64°
2026-05-06 02:03 47.50983 -51.96266 39178 ft 515 kts 65°
2026-05-06 02:04 47.61221 -51.56671 39175 ft 515 kts 65°
2026-05-06 02:04 47.71326 -51.16897 39173 ft 516 kts 66°
2026-05-06 02:05 47.81333 -50.76808 39176 ft 518 kts 66°
2026-05-06 02:05 47.91207 -50.36537 39184 ft 522 kts 66°
2026-05-06 02:06 48.00620 -49.95596 39180 ft 524 kts 74°
2026-05-06 02:06 48.06776 -49.52933 39181 ft 526 kts 76°
2026-05-06 02:07 48.12756 -49.10082 39177 ft 526 kts 76°
2026-05-06 02:07 48.18564 -48.67212 39174 ft 530 kts 76°
2026-05-06 02:08 48.24270 -48.23808 39187 ft 531 kts 76°
2026-05-06 02:08 48.29814 -47.80286 39194 ft 531 kts 77°
2026-05-06 02:09 48.35194 -47.36674 39195 ft 531 kts 77°
2026-05-06 02:09 48.40376 -46.93249 39197 ft 531 kts 77°
2026-05-06 02:10 48.45435 -46.49374 39199 ft 531 kts 78°
2026-05-06 02:10 48.50321 -46.05467 39196 ft 529 kts 78°
2026-05-06 02:11 48.55008 -45.61778 39201 ft 526 kts 79°
2026-05-06 02:11 48.59487 -45.18435 39210 ft 526 kts 79°
2026-05-06 02:12 48.63828 -44.74757 39218 ft 526 kts 80°
2026-05-06 02:12 48.68009 -44.30948 39203 ft 526 kts 81°
2026-05-06 02:13 48.72018 -43.87120 39208 ft 526 kts 81°
2026-05-06 02:13 48.75837 -43.43512 39210 ft 526 kts 82°
2026-05-06 02:14 48.79515 -42.99542 39205 ft 526 kts 82°
2026-05-06 02:14 48.83030 -42.55453 39210 ft 526 kts 83°
2026-05-06 02:15 48.86381 -42.11248 39211 ft 527 kts 83°
2026-05-06 02:15 48.89541 -41.67294 39208 ft 527 kts 83°
2026-05-06 02:16 48.92554 -41.22980 39205 ft 527 kts 84°
2026-05-06 02:16 48.95399 -40.78580 39214 ft 527 kts 85°
2026-05-06 02:17 48.98071 -40.34168 39215 ft 527 kts 85°
2026-05-06 02:17 49.01448 -39.89954 39212 ft 525 kts 78°
2026-05-06 02:18 49.07653 -39.46703 39216 ft 527 kts 78°
2026-05-06 02:18 49.13744 -39.02808 39223 ft 529 kts 79°
2026-05-06 02:19 49.19675 -38.58766 39228 ft 529 kts 79°
2026-05-06 02:19 49.25437 -38.14625 39231 ft 530 kts 79°
2026-05-06 02:20 49.33755 -37.48290 39236 ft 532 kts 80°
2026-05-06 02:21 49.39121 -37.03680 39236 ft 532 kts 81°
2026-05-06 02:21 49.44323 -36.58898 39233 ft 534 kts 81°
2026-05-06 02:22 49.49371 -36.13843 39230 ft 535 kts 81°
2026-05-06 02:22 49.54209 -35.69034 39225 ft 533 kts 81°
2026-05-06 02:23 49.58904 -35.23831 39224 ft 533 kts 82°
2026-05-06 02:23 49.63407 -34.78712 39216 ft 531 kts 82°
2026-05-06 02:24 49.67717 -34.33682 39210 ft 531 kts 82°
2026-05-06 02:24 49.71832 -33.88817 39203 ft 530 kts 83°
2026-05-06 02:25 49.75792 -33.43643 39197 ft 530 kts 83°
2026-05-06 02:25 49.79580 -32.98360 39184 ft 531 kts 83°
2026-05-06 02:26 49.83191 -32.53014 39172 ft 531 kts 84°
2026-05-06 02:26 49.86599 -32.07937 39162 ft 531 kts 84°
2026-05-06 02:27 49.89863 -31.62367 39152 ft 531 kts 84°
2026-05-06 02:27 49.92937 -31.16910 39145 ft 530 kts 84°
2026-05-06 02:28 49.95843 -30.71229 39140 ft 531 kts 85°
2026-05-06 02:28 49.98549 -30.25844 39146 ft 530 kts 85°
2026-05-06 02:29 50.02779 -29.80636 39148 ft 530 kts 77°
2026-05-06 02:29 50.09159 -29.35903 39160 ft 529 kts 77°
2026-05-06 02:30 50.15324 -28.91082 39170 ft 529 kts 77°
2026-05-06 02:30 50.21272 -28.46496 39181 ft 527 kts 77°
2026-05-06 02:31 50.27067 -28.01644 39188 ft 524 kts 77°
2026-05-06 02:31 50.32669 -27.56862 39206 ft 523 kts 77°
2026-05-06 02:32 50.38070 -27.12215 39211 ft 520 kts 78°
2026-05-06 02:32 50.43246 -26.67937 39220 ft 516 kts 78°
2026-05-06 02:33 50.48243 -26.23653 39227 ft 513 kts 78°
2026-05-06 02:33 50.49881 -26.08787 39227 ft 513 kts 78°
2026-05-06 02:34 50.57656 -25.35549 39233 ft 508 kts 79°
2026-05-06 02:34 50.62080 -24.91701 39230 ft 507 kts 79°
2026-05-06 02:35 50.66307 -24.48108 39225 ft 506 kts 79°
2026-05-06 02:35 50.70393 -24.04188 39238 ft 507 kts 79°
2026-05-06 02:36 50.74300 -23.60362 39205 ft 504 kts 79°
2026-05-06 02:36 50.78032 -23.16585 39214 ft 503 kts 79°
2026-05-06 02:37 50.81606 -22.72665 39213 ft 504 kts 79°
2026-05-06 02:37 50.85011 -22.28726 39204 ft 502 kts 79°
2026-05-06 02:38 50.88212 -21.85263 39212 ft 499 kts 79°
2026-05-06 02:38 50.91265 -21.41548 39206 ft 498 kts 80°
2026-05-06 02:39 50.94144 -20.97944 39200 ft 497 kts 80°
2026-05-06 02:39 50.96856 -20.54368 39195 ft 496 kts 81°
2026-05-06 02:40 50.99402 -20.10804 39195 ft 496 kts 81°
2026-05-06 02:40 51.00674 -19.67248 39189 ft 497 kts 85°
2026-05-06 02:41 51.01393 -19.23335 39203 ft 497 kts 85°
2026-05-06 02:41 51.01960 -18.79396 39184 ft 498 kts 85°
2026-05-06 02:42 51.02365 -18.35310 39179 ft 500 kts 86°
2026-05-06 02:42 51.02602 -17.91399 39173 ft 501 kts 86°
2026-05-06 02:43 51.02675 -17.47156 39178 ft 501 kts 87°
2026-05-06 02:43 51.02580 -17.02816 39161 ft 502 kts 88°
2026-05-06 02:44 51.02317 -16.58441 39161 ft 503 kts 88°
2026-05-06 02:44 51.01889 -16.14320 39157 ft 503 kts 89°
2026-05-06 02:45 51.01290 -15.69864 39144 ft 504 kts 89°
2026-05-06 02:45 51.00521 -15.25345 39138 ft 504 kts 90°
2026-05-06 02:46 50.99998 -14.80874 39123 ft 503 kts 87°
2026-05-06 02:46 51.00108 -14.36716 39124 ft 504 kts 88°
2026-05-06 02:47 50.98950 -13.92323 39120 ft 506 kts 100°
2026-05-06 02:47 50.92797 -13.48623 39114 ft 507 kts 101°
2026-05-06 02:48 50.86503 -13.05114 39105 ft 506 kts 102°
2026-05-06 02:48 50.80093 -12.62036 39102 ft 507 kts 102°
2026-05-06 02:49 50.73474 -12.18755 39100 ft 507 kts 103°
2026-05-06 02:49 50.66672 -11.75447 39092 ft 508 kts 103°
2026-05-06 02:50 50.59718 -11.32319 39089 ft 508 kts 103°
2026-05-06 02:50 50.52665 -10.89673 39072 ft 507 kts 104°
2026-05-06 02:51 50.45413 -10.46905 39064 ft 508 kts 104°
2026-05-06 02:51 50.37989 -10.04175 39058 ft 507 kts 105°
2026-05-06 02:52 50.30433 -9.61714 39047 ft 506 kts 105°
2026-05-06 02:52 50.22769 -9.19644 39045 ft 506 kts 105°
2026-05-06 02:53 50.14924 -8.77548 39037 ft 505 kts 106°
2026-05-06 02:53 50.06936 -8.35640 39035 ft 504 kts 106°
2026-05-06 02:54 49.99405 -7.93643 39031 ft 503 kts 99°
2026-05-06 02:54 49.95241 -7.50968 39031 ft 503 kts 98°
2026-05-06 02:55 49.90902 -7.08167 39027 ft 501 kts 99°
2026-05-06 02:55 49.86413 -6.65491 39021 ft 502 kts 99°
2026-05-06 02:56 49.81760 -6.22827 39016 ft 502 kts 99°
2026-05-06 02:56 49.76988 -5.80573 39007 ft 502 kts 99°
2026-05-06 02:57 49.72025 -5.38082 38998 ft 503 kts 100°
2026-05-06 02:57 49.66906 -4.95672 38985 ft 502 kts 100°
2026-05-06 02:58 49.61623 -4.53287 38977 ft 503 kts 100°
2026-05-06 02:58 49.55815 -4.11442 38964 ft 503 kts 103°
2026-05-06 02:59 49.49301 -3.69669 38955 ft 501 kts 103°
2026-05-06 02:59 49.42693 -3.28035 38951 ft 502 kts 103°
2026-05-06 03:00 49.35938 -2.86533 38947 ft 499 kts 104°
2026-05-06 03:00 49.29116 -2.45621 38938 ft 497 kts 104°
2026-05-06 03:01 49.22238 -2.04611 38935 ft 497 kts 99°
2026-05-06 03:01 49.18889 -1.62722 38930 ft 496 kts 97°
2026-05-06 03:02 49.15507 -1.20834 38918 ft 497 kts 97°
2026-05-06 03:02 49.11998 -0.79273 38926 ft 497 kts 97°
2026-05-06 03:03 49.08068 -0.37564 38936 ft 497 kts 103°
2026-05-06 03:03 49.01660 0.03465 38910 ft 497 kts 104°
2026-05-06 03:04 48.98187 0.26277 38906 ft 494 kts 104°
2026-05-06 03:04 48.96616 0.36460 38906 ft 494 kts 104°
2026-05-06 03:05 48.95048 0.46564 38902 ft 494 kts 104°
2026-05-06 03:05 48.93459 0.56740 38902 ft 495 kts 104°
2026-05-06 03:06 48.91799 0.66898 38907 ft 495 kts 105°
2026-05-06 03:06 48.90096 0.77035 38899 ft 495 kts 105°
2026-05-06 03:07 48.88393 0.87164 38904 ft 495 kts 105°
2026-05-06 03:07 48.86701 0.97231 38889 ft 495 kts 105°
2026-05-06 03:08 48.84990 1.07373 38885 ft 496 kts 105°
2026-05-06 03:08 48.83270 1.17506 38884 ft 496 kts 105°
2026-05-06 03:09 48.81543 1.27621 38880 ft 496 kts 105°
2026-05-06 03:09 48.79804 1.37749 38879 ft 496 kts 105°
2026-05-06 03:10 48.78067 1.47801 38871 ft 496 kts 105°
2026-05-06 03:10 48.76310 1.57910 38857 ft 496 kts 105°
2026-05-06 03:11 48.74543 1.68016 38858 ft 496 kts 106°
2026-05-06 03:11 48.72769 1.78110 38848 ft 496 kts 106°
2026-05-06 03:12 48.70999 1.88127 38856 ft 496 kts 106°
2026-05-06 03:12 48.69208 1.98202 38856 ft 496 kts 106°
2026-05-06 03:13 48.67409 2.08269 38856 ft 496 kts 107°
2026-05-06 03:13 48.65599 2.18332 38847 ft 495 kts 107°
2026-05-06 03:14 48.63794 2.28320 38833 ft 496 kts 107°
2026-05-06 03:14 48.61969 2.38363 38829 ft 495 kts 107°
2026-05-06 03:15 48.60137 2.48389 38828 ft 495 kts 107°
2026-05-06 03:15 48.58295 2.58412 38828 ft 495 kts 107°
2026-05-06 03:16 48.56445 2.68429 38837 ft 495 kts 107°
2026-05-06 03:16 48.55173 2.78568 38835 ft 497 kts 96°
2026-05-06 03:17 48.54719 2.88986 38826 ft 498 kts 94°
2026-05-06 03:17 48.54394 2.99420 38820 ft 498 kts 94°
2026-05-06 03:18 48.54067 3.09871 38814 ft 499 kts 94°
2026-05-06 03:18 48.53706 3.20271 38806 ft 500 kts 95°
2026-05-06 03:19 48.53325 3.30761 38809 ft 501 kts 95°
2026-05-06 03:19 48.52935 3.41238 38807 ft 500 kts 95°
2026-05-06 03:20 48.52334 3.56971 38805 ft 501 kts 95°
2026-05-06 03:20 48.51923 3.67406 38795 ft 502 kts 95°
2026-05-06 03:21 48.51500 3.77908 38799 ft 502 kts 95°
2026-05-06 03:21 48.51067 3.88413 38795 ft 502 kts 95°
2026-05-06 03:22 48.50450 3.98872 38794 ft 500 kts 102°
2026-05-06 03:22 48.48237 4.08711 38798 ft 495 kts 117°
2026-05-06 03:23 48.45170 4.17912 38796 ft 495 kts 120°
2026-05-06 03:23 48.41951 4.27064 38795 ft 495 kts 120°
2026-05-06 03:24 48.38732 4.36213 38808 ft 495 kts 120°
2026-05-06 03:24 48.35522 4.45385 38807 ft 496 kts 120°
2026-05-06 03:25 48.32312 4.54556 38808 ft 496 kts 120°
2026-05-06 03:25 48.29119 4.63653 38815 ft 496 kts 120°
2026-05-06 03:26 48.25894 4.72804 38809 ft 496 kts 120°
2026-05-06 03:26 48.22664 4.81938 38817 ft 496 kts 120°
2026-05-06 03:27 48.19420 4.91077 38824 ft 496 kts 120°
2026-05-06 03:27 48.16171 5.00198 38823 ft 496 kts 121°
2026-05-06 03:28 48.12917 5.09302 38827 ft 496 kts 121°
2026-05-06 03:28 48.10014 5.18611 38833 ft 500 kts 110°
2026-05-06 03:29 48.07971 5.28548 38834 ft 500 kts 109°
2026-05-06 03:29 48.06076 5.38553 38832 ft 500 kts 108°
2026-05-06 03:30 48.04182 5.48567 38837 ft 500 kts 108°
2026-05-06 03:30 48.02275 5.58490 38835 ft 500 kts 109°
2026-05-06 03:31 48.00336 5.68468 38835 ft 500 kts 109°
2026-05-06 03:31 47.98385 5.78445 38845 ft 500 kts 109°
2026-05-06 03:32 47.96427 5.88411 38841 ft 500 kts 109°
2026-05-06 03:32 47.94474 5.98305 38839 ft 500 kts 109°
2026-05-06 03:33 47.92499 6.08255 38839 ft 501 kts 109°
2026-05-06 03:33 47.90516 6.18199 38844 ft 501 kts 109°
2026-05-06 03:34 47.88524 6.28136 38851 ft 501 kts 110°
2026-05-06 03:34 47.87527 6.33092 38641 ft 497 kts 110°
2026-05-06 03:34 47.86547 6.37956 37737 ft 499 kts 110°
2026-05-06 03:35 47.85542 6.42920 36801 ft 503 kts 110°
2026-05-06 03:35 47.84529 6.47912 36007 ft 503 kts 110°
2026-05-06 03:35 47.83520 6.52881 35268 ft 502 kts 110°
2026-05-06 03:35 47.82507 6.57854 34501 ft 502 kts 111°
2026-05-06 03:36 47.81493 6.62822 33604 ft 503 kts 111°
2026-05-06 03:36 47.80471 6.67815 32661 ft 504 kts 111°
2026-05-06 03:36 47.79449 6.72797 31777 ft 503 kts 112°
2026-05-06 03:36 47.78442 6.77698 30853 ft 503 kts 112°
2026-05-06 03:37 47.77414 6.82681 29899 ft 504 kts 113°
2026-05-06 03:37 47.76380 6.87672 28815 ft 505 kts 112°
2026-05-06 03:37 47.75350 6.92632 28060 ft 499 kts 112°
2026-05-06 03:37 47.74332 6.97531 27383 ft 493 kts 112°
2026-05-06 03:38 47.73325 7.02365 26702 ft 487 kts 112°
2026-05-06 03:38 47.72328 7.07147 26009 ft 482 kts 111°
2026-05-06 03:38 47.71339 7.11866 25322 ft 477 kts 111°
2026-05-06 03:38 47.70355 7.16557 24630 ft 473 kts 111°
2026-05-06 03:39 47.69382 7.21184 24027 ft 467 kts 110°
2026-05-06 03:39 47.68432 7.25696 23416 ft 462 kts 110°
2026-05-06 03:39 47.67476 7.30213 22701 ft 456 kts 110°
2026-05-06 03:39 47.66532 7.34673 22043 ft 450 kts 110°
2026-05-06 03:40 47.65600 7.39068 21390 ft 444 kts 110°
2026-05-06 03:40 47.64678 7.43403 20776 ft 439 kts 110°
2026-05-06 03:40 47.63762 7.47701 20137 ft 435 kts 110°
2026-05-06 03:40 47.62854 7.51943 19580 ft 429 kts 110°
2026-05-06 03:41 47.61887 7.56130 19215 ft 430 kts 112°
2026-05-06 03:41 47.60891 7.60313 18847 ft 430 kts 112°
2026-05-06 03:41 47.59915 7.64427 18471 ft 428 kts 112°
2026-05-06 03:41 47.58935 7.68570 18081 ft 425 kts 112°
2026-05-06 03:42 47.57963 7.72690 17677 ft 422 kts 112°
2026-05-06 03:42 47.56999 7.76781 17301 ft 420 kts 112°
2026-05-06 03:42 47.56039 7.80855 16930 ft 418 kts 112°
2026-05-06 03:42 47.55082 7.84902 16555 ft 415 kts 112°
2026-05-06 03:43 47.54131 7.88920 16179 ft 413 kts 112°
2026-05-06 03:43 47.53195 7.92872 15812 ft 411 kts 112°
2026-05-06 03:43 47.52271 7.96848 15452 ft 409 kts 110°
2026-05-06 03:43 47.51773 8.01000 15085 ft 412 kts 94°
2026-05-06 03:44 47.52172 8.05189 14721 ft 415 kts 74°
2026-05-06 03:44 47.53485 8.08975 14348 ft 416 kts 54°
2026-05-06 03:44 47.55339 8.12261 13969 ft 414 kts 49°
2026-05-06 03:44 47.57233 8.15370 13702 ft 395 kts 49°
2026-05-06 03:45 47.59010 8.18290 13294 ft 368 kts 49°
2026-05-06 03:45 47.60408 8.21200 12984 ft 338 kts 68°
2026-05-06 03:45 47.60866 8.24425 12687 ft 308 kts 96°
2026-05-06 03:45 47.60379 8.27325 12451 ft 277 kts 121°
2026-05-06 03:46 47.59272 8.29532 12239 ft 269 kts 141°
2026-05-06 03:46 47.57684 8.30992 12056 ft 267 kts 162°
2026-05-06 03:46 47.55907 8.31463 11798 ft 257 kts 182°
2026-05-06 03:46 47.54173 8.30974 11561 ft 254 kts 201°
2026-05-06 03:47 47.52516 8.30079 11297 ft 254 kts 196°
2026-05-06 03:47 47.50767 8.29823 11048 ft 255 kts 176°
2026-05-06 03:47 47.49077 8.30591 10795 ft 257 kts 153°
2026-05-06 03:47 47.47729 8.32270 10578 ft 260 kts 131°
2026-05-06 03:48 47.46638 8.34402 10409 ft 260 kts 133°
2026-05-06 03:48 47.45267 8.36105 10223 ft 256 kts 152°
2026-05-06 03:48 47.43695 8.37308 9983 ft 254 kts 156°
2026-05-06 03:48 47.42096 8.38414 9701 ft 253 kts 156°
2026-05-06 03:49 47.40502 8.39507 9439 ft 253 kts 156°
2026-05-06 03:49 47.38912 8.40600 9204 ft 252 kts 156°
2026-05-06 03:49 47.37321 8.41696 8974 ft 252 kts 156°
2026-05-06 03:49 47.35752 8.42777 8757 ft 252 kts 157°
2026-05-06 03:50 47.34161 8.43878 8535 ft 252 kts 157°
2026-05-06 03:50 47.32574 8.44972 8290 ft 252 kts 157°
2026-05-06 03:50 47.30985 8.46064 8083 ft 252 kts 157°
2026-05-06 03:50 47.29400 8.47153 7840 ft 252 kts 157°
2026-05-06 03:51 47.27816 8.48243 7619 ft 251 kts 157°
2026-05-06 03:51 47.26229 8.49333 7403 ft 251 kts 156°
2026-05-06 03:51 47.24646 8.50425 7173 ft 251 kts 156°
2026-05-06 03:51 47.23063 8.51512 6956 ft 251 kts 155°
2026-05-06 03:52 47.21502 8.52583 6720 ft 251 kts 155°
2026-05-06 03:52 47.19983 8.53835 6500 ft 251 kts 143°
2026-05-06 03:52 47.18886 8.55810 6361 ft 252 kts 116°
2026-05-06 03:52 47.18529 8.58320 6256 ft 254 kts 88°
2026-05-06 03:53 47.18963 8.60824 6156 ft 255 kts 67°
2026-05-06 03:53 47.19708 8.63191 6039 ft 256 kts 64°
2026-05-06 03:53 47.20484 8.65546 5934 ft 256 kts 64°
2026-05-06 03:53 47.21236 8.67833 5817 ft 246 kts 63°
2026-05-06 03:54 47.22297 8.69673 5705 ft 232 kts 30°
2026-05-06 03:54 47.23792 8.70149 5508 ft 217 kts 349°
2026-05-06 03:54 47.25158 8.69378 5241 ft 208 kts 330°
2026-05-06 03:54 47.26423 8.68366 4943 ft 205 kts 329°
2026-05-06 03:55 47.27669 8.67375 4658 ft 202 kts 329°
2026-05-06 03:55 47.28930 8.66482 4313 ft 200 kts 331°
2026-05-06 03:55 47.30195 8.65617 3943 ft 201 kts 332°
2026-05-06 03:55 47.31452 8.64749 3609 ft 198 kts 332°
2026-05-06 03:56 47.32688 8.63884 3325 ft 196 kts 332°
2026-05-06 03:56 47.33917 8.63023 3037 ft 196 kts 333°
2026-05-06 03:56 47.35133 8.62178 2752 ft 197 kts 333°
2026-05-06 03:56 47.36354 8.61335 2668 ft 195 kts 333°
2026-05-06 03:57 47.37592 8.60498 2609 ft 192 kts 334°
2026-05-06 03:57 47.38763 8.59717 2525 ft 177 kts 334°
2026-05-06 03:57 47.39822 8.58972 2429 ft 161 kts 333°
2026-05-06 03:57 47.40787 8.58300 2301 ft 147 kts 334°
2026-05-06 03:58 47.41672 8.57682 2167 ft 137 kts 331°
2026-05-06 03:58 47.42505 8.57045 1987 ft 137 kts 330°
2026-05-06 03:58 47.43346 8.56393 1770 ft 136 kts 334°
2026-05-06 03:58 47.44229 8.55851 1581 ft 138 kts 327°
2026-05-06 03:59 47.45104 8.55275 1430 ft 138 kts 338°
2026-05-06 03:59 47.45909 8.54743 1408 ft 100 kts 335°
2026-05-06 03:59 47.46267 8.54489 1408 ft 22 kts 336°
2026-05-06 03:59 47.46386 8.54414 1411 ft 9 kts 347°
2026-05-06 04:00 47.46430 8.54432 1410 ft 5 kts 32°
2026-05-06 04:00 47.46452 8.54489 1406 ft 8 kts 61°
2026-05-06 04:00 47.46481 8.54569 1411 ft 9 kts 66°
2026-05-06 04:00 47.46458 8.54630 1413 ft 8 kts 137°
2026-05-06 04:01 47.46427 8.54658 1410 ft 9 kts 153°
2026-05-06 04:01 47.46356 8.54710 1413 ft 12 kts 154°
2026-05-06 04:01 47.46307 8.54807 1413 ft 13 kts 99°
2026-05-06 04:01 47.46267 8.54912 1413 ft 12 kts 147°
2026-05-06 04:02 47.46182 8.54975 1411 ft 15 kts 154°
2026-05-06 04:02 47.46103 8.55029 1409 ft 0 kts 155°
2026-05-06 04:03 47.46103 8.55030 1409 ft 0 kts 155°
2026-05-06 04:03 47.46078 8.55046 1413 ft 7 kts 155°
2026-05-06 04:03 47.46026 8.55083 1413 ft 10 kts 151°
2026-05-06 04:03 47.45990 8.55171 1407 ft 11 kts 103°
2026-05-06 04:04 47.45986 8.55237 1405 ft 0 kts 95°
2026-05-06 04:04 47.45985 8.55245 1403 ft 4 kts 95°
2026-05-06 04:04 47.45986 8.55304 1403 ft 3 kts 73°
2026-05-06 04:05 47.46006 8.55329 1413 ft 4 kts 24°
2026-05-06 04:05 47.46043 8.55336 1410 ft 5 kts
2026-05-06 04:05 47.46049 8.55337 1410 ft 0 kts
2026-05-06 04:05 47.46057 8.55338 1410 ft 2 kts
2026-05-06 04:06 47.46063 8.55339 1410 ft 0 kts